Hourly Weather Roundup
Issued by NWS Central Illinois

Home | Current Version | Previous Version | Text Only | Print | Product List | Glossary On
Versions: 1 2 3 4 5 6 7 8 9 10 11 12 13 14 15 16 17 18 19 20 21 22 23 24 25 26 27 28 29 30 31 32 33 34 35 36 37 38 39 40 41 42 43 44 45 46 47 48 49 50
000
NZUS43 KILX 241810
HWRILX

Area Weather Roundup
National Weather Service Lincoln IL
100 PM CDT MON APR 24 2017

NOTE:  "FAIR" indicates few or no clouds below 12,000 feet, with
       no sigificant weather and/or obstructions to visibility.


CITY           SKY/WX    TMP DP  RH WIND       PRES   REMARKS
Bloomington    SUNNY     73  34  23 SE10G24   29.92F
6HR MIN TEMP:  46; 6HR MAX TEMP:  73;

Champaign      SUNNY     74  30  19 NE8       29.90F
6HR MIN TEMP:  51; 6HR MAX TEMP:  75;

Danville       SUNNY     73  31  21 E9        29.89F
6HR MIN TEMP:  44; 6HR MAX TEMP:  73;

Decatur        SUNNY     73  33  23 VRB6      29.91F
6HR MIN TEMP:  43; 6HR MAX TEMP:  73;

Effingham      SUNNY     74  32  21 NE8       29.91F
6HR MIN TEMP:  50; 6HR MAX TEMP:  74;

Flora          SUNNY     74  33  22 NE9       29.89F
6HR MIN TEMP:  48; 6HR MAX TEMP:  74;

Galesburg      SUNNY     71  30  21 SE12G20   29.88F
6HR MIN TEMP:  47; 6HR MAX TEMP:  72;

Jacksonville   SUNNY     72  31  21 S8        29.89F
6HR MIN TEMP:  42; 6HR MAX TEMP:  72;

Lacon          MOSUNNY   73  32  22 S8        29.90F
6HR MIN TEMP:  43; 6HR MAX TEMP:  73;

Lawrenceville  SUNNY     76  33  21 NE10      29.87F
6HR MIN TEMP:  50; 6HR MAX TEMP:  76;

Litchfield     CLOUDY    71  34  25 E6        29.90F
6HR MIN TEMP:  47; 6HR MAX TEMP:  72;

$$


CITY           SKY/WX    TMP DP  RH WIND       PRES   REMARKS
Lincoln        SUNNY     74  33  21 SE6       29.90F
6HR MIN TEMP:  45; 6HR MAX TEMP:  74;

Macomb         SUNNY     74  25  16 SE15      29.90F
6HR MIN TEMP:  42; 6HR MAX TEMP:  74;

Mattoon        SUNNY     73  31  21 E9        29.89F
6HR MIN TEMP:  43; 6HR MAX TEMP:  73;

Mt Carmel AP   SUNNY     73  28  18 E13       29.86F
6HR MIN TEMP:  51; 6HR MAX TEMP:  74;

Olney-Noble AP SUNNY     73  32  21 NE7       29.88F
Paris AP       SUNNY     75  32  21 E13G18    29.90F
6HR MIN TEMP:  46; 6HR MAX TEMP:  75;

Peoria         CLOUDY    73  30  20 SE14G20   29.90F
6HR MIN TEMP:  48; 6HR MAX TEMP:  73;

Pontiac        SUNNY     73  30  20 SE8       29.93F
6HR MIN TEMP:  46; 6HR MAX TEMP:  74;

Rantoul        SUNNY     75  31  20 E9G22     29.91F
6HR MIN TEMP:  50; 6HR MAX TEMP:  75;

Robinson       SUNNY     74  31  20 NE14      29.89F
6HR MIN TEMP:  44; 6HR MAX TEMP:  74;

Springfield    SUNNY     75  31  19 VRB6      29.90F
6HR MIN TEMP:  45; 6HR MAX TEMP:  76;

Taylorville    MOSUNNY   72  29  19 NE7       29.90F
6HR MIN TEMP:  47; 6HR MAX TEMP:  73;

$$

...REGIONAL REPORTS...


CITY           SKY/WX    TMP DP  RH WIND       PRES   REMARKS
Chicago O`Hare PTSUNNY   70  26  19 SE10      29.94F
Kankakee       SUNNY     73  32  22 SE9       29.93F
Moline         SUNNY     73  34  23 SE12      29.87F
Mount Sterling SUNNY     72  32  22 S9G16     29.88F
Mount Vernon   SUNNY     72  37  28 NE8       29.88F
Pittsfield     SUNNY     73  32  21 SE8       29.90F
Quincy         SUNNY     72  27  18 SE12      29.87F
Rockford       CLOUDY    72  33  24 S13       29.92F
$$


CITY           SKY/WX    TMP DP  RH WIND       PRES   REMARKS
Burlington     SUNNY     71  34  25 S12       29.86F
Cedar Rapids   CLOUDY    71  30  21 S18G33    29.83F
Des Moines     CLOUDY    73  30  20 S25G37    29.76F
Kirksville     SUNNY     73  32  22 SE21G30   29.82F
Ottumwa        SUNNY     73  28  18 S23G31    29.80F
St Louis       MOSUNNY   73  30  20 SE7       29.90F
$$


CITY           SKY/WX    TMP DP  RH WIND       PRES   REMARKS
Terre Haute    SUNNY     74  32  21 E15       29.88F
Evansville     SUNNY     74  41  30 E7        29.86F
Indianapolis   MOSUNNY   73  34  23 E10G23    29.89F
Lafayette      NOT AVBL
Madison        CLOUDY    67  31  26 S14       29.90F
Milwaukee      CLOUDY    62  45  53 SE8       29.97F
$$






USA.gov is the U.S. government's official web portal to all federal, state and local government web resources and services.